| time (UTC) | temp F | wind direction | speed MPH | gust MPH | rain 1hr in | rain 24hr in | rain mn in | humidity % | barometer mb |
| 20260506041216 | 48 | 169 | 0.0 | 0.0 | 0.00 | 0.00 | 0.00 | 65 | 1002.3 |
| 20260506040716 | 48 | 169 | 0.0 | 0.0 | 0.00 | 0.00 | 0.00 | 65 | 1002.3 |
| 20260506040216 | 48 | 169 | 0.0 | 0.0 | 0.00 | 0.00 | 0.00 | 64 | 1002.3 |
| 20260506035716 | 48 | 169 | 0.0 | 0.0 | 0.00 | 0.00 | 0.00 | 64 | 1002.3 |
| 20260506035216 | 49 | 169 | 0.0 | 0.0 | 0.00 | 0.00 | 0.00 | 64 | 1002.3 |
| 20260506034716 | 49 | 169 | 0.0 | 0.0 | 0.00 | 0.00 | 0.00 | 63 | 1002.3 |
| 20260506034216 | 49 | 169 | 0.0 | 0.0 | 0.00 | 0.00 | 0.00 | 63 | 1002.3 |
| 20260506033716 | 49 | 169 | 0.0 | 0.0 | 0.00 | 0.00 | 0.00 | 64 | 1002.2 |
| 20260506033216 | 49 | 169 | 0.0 | 0.0 | 0.00 | 0.00 | 0.00 | 63 | 1002.0 |
| 20260506032716 | 49 | 169 | 0.0 | 0.0 | 0.00 | 0.00 | 0.00 | 63 | 1002.0 |
| 20260506032216 | 49 | 169 | 0.0 | 0.0 | 0.00 | 0.00 | 0.00 | 62 | 1002.0 |
| 20260506031716 | 50 | 169 | 0.0 | 0.0 | 0.00 | 0.00 | 0.00 | 62 | 1001.8 |
| 20260506031216 | 50 | 169 | 0.0 | 0.0 | 0.00 | 0.00 | 0.00 | 61 | 1001.8 |
| 20260506030716 | 50 | 169 | 0.0 | 0.0 | 0.00 | 0.00 | 0.00 | 61 | 1001.8 |
| 20260506030216 | 51 | 169 | 0.0 | 0.0 | 0.00 | 0.00 | 0.00 | 60 | 1001.7 |
| 20260506025716 | 51 | 169 | 0.0 | 0.0 | 0.00 | 0.00 | 0.00 | 59 | 1001.6 |
| 20260506025216 | 51 | 169 | 0.0 | 0.0 | 0.00 | 0.00 | 0.00 | 59 | 1001.6 |
| 20260506024716 | 52 | 169 | 0.0 | 0.0 | 0.00 | 0.00 | 0.00 | 59 | 1001.5 |
| 20260506024216 | 52 | 169 | 0.0 | 0.0 | 0.00 | 0.00 | 0.00 | 58 | 1001.4 |
| 20260506023716 | 52 | 169 | 0.0 | 0.0 | 0.00 | 0.00 | 0.00 | 57 | 1001.4 |
| 20260506023216 | 53 | 169 | 0.0 | 0.0 | 0.00 | 0.00 | 0.00 | 57 | 1001.3 |
| 20260506022716 | 53 | 169 | 0.0 | 0.0 | 0.00 | 0.00 | 0.00 | 56 | 1001.3 |
| 20260506022216 | 53 | 169 | 0.0 | 0.0 | 0.00 | 0.00 | 0.00 | 55 | 1001.1 |
| 20260506021716 | 53 | 169 | 0.0 | 0.0 | 0.00 | 0.00 | 0.00 | 55 | 1001.1 |
| 20260506021216 | 53 | 169 | 1.0 | 4.0 | 0.00 | 0.00 | 0.00 | 54 | 1001.1 |
| 20260506020716 | 53 | 168 | 1.0 | 2.0 | 0.00 | 0.00 | 0.00 | 54 | 1001.1 |
| 20260506020216 | 54 | 167 | 1.0 | 4.0 | 0.00 | 0.00 | 0.00 | 54 | 1001.0 |
| 20260506015716 | 54 | 167 | 1.0 | 3.0 | 0.00 | 0.00 | 0.00 | 54 | 1001.1 |
| 20260506015216 | 54 | 166 | 1.0 | 4.0 | 0.00 | 0.00 | 0.00 | 54 | 1001.0 |
| 20260506014716 | 54 | 165 | 1.0 | 3.0 | 0.00 | 0.00 | 0.00 | 53 | 1001.1 |
| 20260506014216 | 55 | 165 | 1.0 | 3.0 | 0.00 | 0.00 | 0.00 | 53 | 1001.0 |
| 20260506013716 | 55 | 165 | 1.0 | 3.0 | 0.00 | 0.00 | 0.00 | 52 | 1001.0 |
| 20260506013216 | 56 | 165 | 1.0 | 4.0 | 0.00 | 0.00 | 0.00 | 51 | 1001.0 |
| 20260506012716 | 56 | 165 | 0.0 | 3.0 | 0.00 | 0.00 | 0.00 | 51 | 1000.9 |
| 20260506012216 | 56 | 165 | 0.0 | 0.0 | 0.00 | 0.00 | 0.00 | 51 | 1000.8 |
| 20260506011716 | 56 | 165 | 1.0 | 2.0 | 0.00 | 0.00 | 0.00 | 51 | 1000.9 |
| 20260506011216 | 56 | 165 | 2.0 | 4.0 | 0.00 | 0.00 | 0.00 | 51 | 1000.8 |
| 20260506010716 | 56 | 165 | 2.0 | 6.0 | 0.00 | 0.00 | 0.00 | 50 | 1000.9 |
| 20260506010216 | 56 | 182 | 2.0 | 4.0 | 0.00 | 0.00 | 0.00 | 51 | 1000.9 |
| 20260506005716 | 57 | 181 | 2.0 | 4.0 | 0.00 | 0.00 | 0.00 | 50 | 1000.8 |
| 20260506005216 | 57 | 181 | 2.0 | 5.0 | 0.00 | 0.00 | 0.00 | 51 | 1000.8 |
| 20260506004716 | 57 | 163 | 2.0 | 5.0 | 0.00 | 0.00 | 0.00 | 51 | 1000.8 |
| 20260506004216 | 57 | 164 | 2.0 | 6.0 | 0.00 | 0.00 | 0.00 | 51 | 1000.8 |
| 20260506003716 | 57 | 184 | 2.0 | 5.0 | 0.00 | 0.00 | 0.00 | 51 | 1000.8 |
| 20260506003216 | 57 | 194 | 2.0 | 4.0 | 0.00 | 0.00 | 0.00 | 51 | 1000.7 |
| 20260506002716 | 57 | 188 | 2.0 | 4.0 | 0.00 | 0.00 | 0.00 | 51 | 1000.7 |
| 20260506002216 | 57 | 188 | 2.0 | 6.0 | 0.00 | 0.00 | 0.00 | 51 | 1000.8 |
| 20260506001716 | 57 | 154 | 2.0 | 6.0 | 0.00 | 0.00 | 0.00 | 51 | 1000.8 |
| 20260506001216 | 57 | 159 | 1.0 | 6.0 | 0.00 | 0.00 | 0.00 | 52 | 1000.8 |
| 20260506000716 | 57 | 164 | 1.0 | 3.0 | 0.00 | 0.00 | 0.00 | 52 | 1000.7 |
| 20260506000219 | 57 | 164 | 2.0 | 4.0 | 0.00 | 0.00 | 0.00 | 52 | 1000.8 |
| 20260505235716 | 57 | 164 | 1.0 | 5.0 | 0.00 | 0.00 | 0.00 | 52 | 1000.9 |
| 20260505235216 | 56 | 161 | 1.0 | 2.0 | 0.00 | 0.00 | 0.00 | 53 | 1000.8 |
| 20260505234716 | 56 | 161 | 1.0 | 4.0 | 0.00 | 0.00 | 0.00 | 53 | 1000.8 |
| 20260505234216 | 56 | 160 | 1.0 | 7.0 | 0.00 | 0.00 | 0.00 | 54 | 1000.9 |
| 20260505233716 | 56 | 180 | 2.0 | 4.0 | 0.00 | 0.00 | 0.00 | 52 | 1000.8 |
| 20260505233216 | 57 | 178 | 2.0 | 6.0 | 0.00 | 0.00 | 0.00 | 52 | 1000.8 |
| 20260505232716 | 56 | 201 | 1.0 | 6.0 | 0.00 | 0.00 | 0.00 | 53 | 1000.8 |
| 20260505232216 | 56 | 193 | 1.0 | 5.0 | 0.00 | 0.00 | 0.00 | 54 | 1000.9 |
| 20260505231716 | 56 | 184 | 1.0 | 4.0 | 0.00 | 0.00 | 0.00 | 54 | 1000.9 |
| 20260505231216 | 56 | 184 | 1.0 | 4.0 | 0.00 | 0.00 | 0.00 | 56 | 1001.0 |
| 20260505230716 | 56 | 185 | 1.0 | 4.0 | 0.00 | 0.00 | 0.00 | 56 | 1001.0 |
| 20260505230216 | 55 | 186 | 1.0 | 3.0 | 0.00 | 0.00 | 0.00 | 57 | 1001.0 |
| 20260505225716 | 55 | 186 | 1.0 | 4.0 | 0.00 | 0.00 | 0.00 | 58 | 1001.1 |
| 20260505225216 | 54 | 185 | 1.0 | 4.0 | 0.00 | 0.00 | 0.00 | 61 | 1001.1 |
| 20260505224716 | 54 | 186 | 1.0 | 4.0 | 0.00 | 0.00 | 0.00 | 62 | 1001.2 |
| 20260505224216 | 53 | 186 | 1.0 | 3.0 | 0.00 | 0.00 | 0.00 | 61 | 1001.2 |
| 20260505223716 | 53 | 186 | 1.0 | 2.0 | 0.00 | 0.00 | 0.00 | 61 | 1001.3 |
| 20260505223216 | 53 | 186 | 0.0 | 3.0 | 0.00 | 0.00 | 0.00 | 62 | 1001.5 |
| 20260505222716 | 53 | 186 | 0.0 | 3.0 | 0.00 | 0.00 | 0.00 | 60 | 1001.6 |
| 20260505222216 | 53 | 186 | 1.0 | 1.0 | 0.00 | 0.00 | 0.00 | 61 | 1001.6 |
| 20260505221716 | 53 | 165 | 1.0 | 5.0 | 0.00 | 0.00 | 0.00 | 60 | 1001.6 |
| 20260505221216 | 54 | 163 | 1.0 | 3.0 | 0.00 | 0.00 | 0.00 | 58 | 1001.6 |
| 20260505220716 | 54 | 163 | 1.0 | 3.0 | 0.00 | 0.00 | 0.00 | 56 | 1001.7 |
| 20260505220216 | 54 | 163 | 1.0 | 2.0 | 0.00 | 0.00 | 0.00 | 53 | 1001.7 |
| 20260505215716 | 55 | 163 | 1.0 | 3.0 | 0.00 | 0.00 | 0.00 | 52 | 1001.7 |
| 20260505215216 | 55 | 163 | 1.0 | 3.0 | 0.00 | 0.00 | 0.00 | 53 | 1001.6 |
| 20260505214716 | 55 | 163 | 2.0 | 4.0 | 0.00 | 0.00 | 0.00 | 52 | 1001.7 |
| 20260505214216 | 55 | 165 | 2.0 | 4.0 | 0.00 | 0.00 | 0.00 | 52 | 1001.6 |
| 20260505213716 | 55 | 166 | 2.0 | 5.0 | 0.00 | 0.00 | 0.00 | 53 | 1001.6 |
| 20260505213216 | 55 | 165 | 1.0 | 5.0 | 0.00 | 0.00 | 0.00 | 53 | 1001.6 |
| 20260505212717 | 55 | 163 | 2.0 | 3.0 | 0.00 | 0.00 | 0.00 | 54 | 1001.5 |
| 20260505212216 | 54 | 163 | 2.0 | 7.0 | 0.00 | 0.00 | 0.00 | 53 | 1001.5 |
| 20260505211716 | 54 | 175 | 2.0 | 3.0 | 0.00 | 0.00 | 0.00 | 54 | 1001.5 |
| 20260505211217 | 54 | 175 | 2.0 | 5.0 | 0.00 | 0.00 | 0.00 | 53 | 1001.5 |
| 20260505210716 | 54 | 173 | 2.0 | 5.0 | 0.00 | 0.00 | 0.00 | 54 | 1001.5 |
| 20260505210217 | 54 | 174 | 2.0 | 5.0 | 0.00 | 0.00 | 0.00 | 54 | 1001.5 |
| 20260505205717 | 54 | 178 | 2.0 | 6.0 | 0.00 | 0.00 | 0.00 | 55 | 1001.5 |
| 20260505205217 | 54 | 179 | 2.0 | 3.0 | 0.00 | 0.00 | 0.00 | 55 | 1001.6 |
| 20260505204717 | 54 | 179 | 2.0 | 4.0 | 0.00 | 0.00 | 0.00 | 55 | 1001.6 |
| 20260505204217 | 54 | 179 | 2.0 | 4.0 | 0.00 | 0.00 | 0.00 | 55 | 1001.5 |
| 20260505203717 | 54 | 178 | 1.0 | 5.0 | 0.00 | 0.00 | 0.00 | 55 | 1001.4 |
| 20260505203217 | 54 | 179 | 2.0 | 4.0 | 0.00 | 0.00 | 0.00 | 55 | 1001.5 |
| 20260505202717 | 54 | 175 | 2.0 | 4.0 | 0.00 | 0.00 | 0.00 | 55 | 1001.4 |
| 20260505202217 | 53 | 175 | 2.0 | 6.0 | 0.00 | 0.00 | 0.00 | 55 | 1001.5 |
| 20260505201717 | 53 | 177 | 2.0 | 5.0 | 0.00 | 0.00 | 0.00 | 55 | 1001.4 |
| 20260505201217 | 53 | 174 | 2.0 | 6.0 | 0.00 | 0.00 | 0.00 | 55 | 1001.4 |
| 20260505200717 | 53 | 177 | 2.0 | 5.0 | 0.00 | 0.00 | 0.00 | 55 | 1001.5 |
| 20260505200217 | 53 | 175 | 2.0 | 5.0 | 0.00 | 0.00 | 0.00 | 55 | 1001.4 |
| 20260505195717 | 53 | 173 | 2.0 | 4.0 | 0.00 | 0.00 | 0.00 | 55 | 1001.3 |
| 20260505195217 | 53 | 173 | 2.0 | 4.0 | 0.00 | 0.00 | 0.00 | 58 | 1001.2 |
| 20260505194717 | 53 | 173 | 2.0 | 7.0 | 0.00 | 0.00 | 0.00 | 58 | 1001.3 |
| 20260505194217 | 53 | 171 | 2.0 | 5.0 | 0.00 | 0.00 | 0.00 | 56 | 1001.2 |
| 20260505193717 | 53 | 191 | 3.0 | 5.0 | 0.00 | 0.00 | 0.00 | 56 | 1001.3 |
| 20260505193217 | 53 | 184 | 3.0 | 6.0 | 0.00 | 0.00 | 0.00 | 57 | 1001.3 |
| 20260505192743 | 53 | 194 | 3.0 | 5.0 | 0.00 | 0.00 | 0.00 | 58 | 1001.2 |
| 20260505192217 | 52 | 190 | 3.0 | 5.0 | 0.00 | 0.00 | 0.00 | 57 | 1001.2 |
| 20260505191717 | 52 | 203 | 3.0 | 5.0 | 0.00 | 0.00 | 0.00 | 57 | 1001.1 |
| 20260505191217 | 52 | 213 | 3.0 | 6.0 | 0.00 | 0.00 | 0.00 | 58 | 1001.2 |
| 20260505190717 | 52 | 197 | 3.0 | 5.0 | 0.00 | 0.00 | 0.00 | 59 | 1001.1 |
| 20260505190217 | 52 | 170 | 4.0 | 7.0 | 0.00 | 0.00 | 0.00 | 58 | 1001.2 |
| 20260505185717 | 52 | 207 | 4.0 | 7.0 | 0.00 | 0.00 | 0.00 | 58 | 1001.2 |
| 20260505185217 | 52 | 207 | 4.0 | 8.0 | 0.00 | 0.00 | 0.00 | 59 | 1001.1 |
| 20260505184717 | 53 | 184 | 3.0 | 9.0 | 0.00 | 0.00 | 0.00 | 59 | 1001.2 |
| 20260505184217 | 53 | 202 | 4.0 | 7.0 | 0.00 | 0.00 | 0.00 | 59 | 1001.1 |
| 20260505183717 | 52 | 195 | 4.0 | 10.0 | 0.00 | 0.00 | 0.00 | 60 | 1001.0 |
| 20260505183217 | 52 | 180 | 4.0 | 9.0 | 0.00 | 0.00 | 0.00 | 61 | 1001.0 |
| 20260505182717 | 51 | 229 | 4.0 | 9.0 | 0.00 | 0.00 | 0.00 | 61 | 1001.0 |
| 20260505182217 | 51 | 213 | 4.0 | 6.0 | 0.00 | 0.00 | 0.00 | 62 | 1000.9 |
| 20260505181717 | 51 | 179 | 3.0 | 9.0 | 0.00 | 0.00 | 0.00 | 63 | 1000.8 |
| 20260505181217 | 51 | 201 | 3.0 | 7.0 | 0.00 | 0.00 | 0.00 | 62 | 1000.8 |
| 20260505180717 | 51 | 211 | 3.0 | 5.0 | 0.00 | 0.00 | 0.00 | 63 | 1001.0 |
| 20260505180217 | 51 | 209 | 4.0 | 7.0 | 0.00 | 0.00 | 0.00 | 62 | 1001.1 |
| 20260505175717 | 51 | 152 | 3.0 | 9.0 | 0.00 | 0.00 | 0.00 | 63 | 1001.0 |
| 20260505175217 | 51 | 217 | 3.0 | 8.0 | 0.00 | 0.00 | 0.00 | 62 | 1001.0 |
| 20260505174717 | 51 | 193 | 3.0 | 5.0 | 0.00 | 0.00 | 0.00 | 63 | 1001.0 |
| 20260505174217 | 51 | 219 | 3.0 | 6.0 | 0.00 | 0.00 | 0.00 | 63 | 1001.0 |
| 20260505173717 | 50 | 213 | 4.0 | 8.0 | 0.00 | 0.00 | 0.00 | 63 | 1000.9 |
| 20260505173217 | 50 | 201 | 4.0 | 7.0 | 0.00 | 0.00 | 0.00 | 63 | 1000.9 |
| 20260505172717 | 50 | 212 | 4.0 | 8.0 | 0.00 | 0.00 | 0.00 | 65 | 1000.7 |
| 20260505172217 | 50 | 211 | 4.0 | 9.0 | 0.00 | 0.00 | 0.00 | 67 | 1000.8 |
| 20260505171717 | 49 | 225 | 4.0 | 8.0 | 0.00 | 0.00 | 0.00 | 68 | 1000.7 |
| 20260505171217 | 49 | 221 | 4.0 | 8.0 | 0.00 | 0.00 | 0.00 | 68 | 1000.7 |
| 20260505170719 | 49 | 220 | 3.0 | 7.0 | 0.00 | 0.00 | 0.00 | 68 | 1000.8 |
| 20260505170217 | 48 | 213 | 3.0 | 7.0 | 0.00 | 0.00 | 0.00 | 70 | 1000.7 |
| 20260505165717 | 48 | 217 | 3.0 | 8.0 | 0.00 | 0.00 | 0.00 | 71 | 1000.8 |
| 20260505165217 | 48 | 206 | 4.0 | 7.0 | 0.00 | 0.00 | 0.00 | 72 | 1000.8 |
| 20260505164717 | 48 | 193 | 4.0 | 7.0 | 0.00 | 0.00 | 0.00 | 73 | 1000.7 |
| 20260505164217 | 48 | 205 | 3.0 | 6.0 | 0.00 | 0.00 | 0.00 | 74 | 1000.7 |
| 20260505163717 | 47 | 159 | 3.0 | 7.0 | 0.00 | 0.00 | 0.00 | 74 | 1000.7 |
| 20260505163217 | 47 | 182 | 3.0 | 6.0 | 0.00 | 0.00 | 0.00 | 74 | 1000.8 |
| 20260505162717 | 47 | 179 | 3.0 | 5.0 | 0.00 | 0.00 | 0.00 | 74 | 1000.8 |
| 20260505162217 | 47 | 173 | 4.0 | 7.0 | 0.00 | 0.00 | 0.00 | 73 | 1000.9 |
| 20260505161717 | 47 | 177 | 4.0 | 7.0 | 0.00 | 0.00 | 0.00 | 72 | 1000.9 |
| 20260505161217 | 48 | 161 | 4.0 | 10.0 | 0.00 | 0.00 | 0.00 | 71 | 1000.9 |
| 20260505160717 | 48 | 198 | 4.0 | 7.0 | 0.00 | 0.00 | 0.00 | 70 | 1000.9 |
| 20260505160217 | 48 | 163 | 4.0 | 7.0 | 0.00 | 0.00 | 0.00 | 70 | 1000.9 |
| 20260505153308 | 48 | 221 | 4.0 | 9.0 | 0.00 | 0.00 | 0.00 | 68 | 1000.2 |
| 20260505152717 | 48 | 179 | 4.0 | 7.0 | 0.00 | 0.00 | 0.00 | 67 | 1000.2 |
| 20260505152217 | 49 | 185 | 4.0 | 9.0 | 0.00 | 0.00 | 0.00 | 66 | 1000.2 |
| 20260505151717 | 49 | 177 | 3.0 | 7.0 | 0.00 | 0.00 | 0.00 | 66 | 1000.1 |
| 20260505151217 | 49 | 206 | 3.0 | 5.0 | 0.00 | 0.00 | 0.00 | 66 | 1000.1 |
| 20260505150717 | 49 | 209 | 3.0 | 7.0 | 0.00 | 0.00 | 0.00 | 65 | 1000.0 |
| 20260505150217 | 49 | 202 | 2.0 | 5.0 | 0.00 | 0.00 | 0.00 | 64 | 1000.1 |
| 20260505140217 | 50 | 221 | 2.0 | 7.0 | 0.00 | 0.00 | 0.00 | 59 | 999.6 |
| 20260505130217 | 52 | 223 | 2.0 | 4.0 | 0.00 | 0.00 | 0.00 | 58 | 998.5 |
| 20260505124717 | 52 | 224 | 2.0 | 4.0 | 0.00 | 0.00 | 0.00 | 55 | 998.2 |
| 20260505124217 | 52 | 224 | 2.0 | 5.0 | 0.00 | 0.00 | 0.00 | 57 | 998.2 |
| 20260505123717 | 52 | 226 | 2.0 | 6.0 | 0.00 | 0.00 | 0.00 | 59 | 998.1 |
| 20260505123217 | 52 | 227 | 2.0 | 6.0 | 0.00 | 0.00 | 0.00 | 62 | 998.0 |
| 20260505122717 | 52 | 212 | 1.0 | 3.0 | 0.00 | 0.00 | 0.00 | 63 | 998.0 |
| 20260505122217 | 52 | 212 | 1.0 | 5.0 | 0.00 | 0.00 | 0.00 | 64 | 998.0 |
| 20260505121717 | 52 | 211 | 1.0 | 3.0 | 0.00 | 0.00 | 0.00 | 66 | 998.1 |
| 20260505121217 | 52 | 211 | 1.0 | 4.0 | 0.00 | 0.00 | 0.00 | 66 | 998.2 |
| 20260505120717 | 52 | 211 | 1.0 | 3.0 | 0.00 | 0.00 | 0.00 | 65 | 998.3 |
| 20260505120217 | 52 | 212 | 1.0 | 2.0 | 0.00 | 0.00 | 0.00 | 63 | 998.3 |
| 20260505115717 | 52 | 212 | 1.0 | 3.0 | 0.00 | 0.00 | 0.00 | 63 | 998.4 |
| 20260505115217 | 53 | 212 | 1.0 | 3.0 | 0.00 | 0.00 | 0.00 | 62 | 998.4 |
| 20260505114717 | 53 | 212 | 1.0 | 4.0 | 0.00 | 0.00 | 0.00 | 60 | 998.4 |
| 20260505114217 | 53 | 212 | 1.0 | 4.0 | 0.00 | 0.00 | 0.00 | 60 | 998.4 |
| 20260505113717 | 53 | 212 | 0.0 | 3.0 | 0.00 | 0.00 | 0.00 | 59 | 998.4 |
| 20260505113217 | 53 | 212 | 0.0 | 0.0 | 0.00 | 0.00 | 0.00 | 58 | 998.4 |
| 20260505112717 | 53 | 212 | 0.0 | 2.0 | 0.00 | 0.00 | 0.00 | 57 | 998.4 |
| 20260505112217 | 53 | 212 | 0.0 | 0.0 | 0.00 | 0.00 | 0.00 | 58 | 998.4 |
| 20260505111717 | 53 | 212 | 0.0 | 0.0 | 0.00 | 0.00 | 0.00 | 58 | 998.3 |
| 20260505111217 | 53 | 212 | 0.0 | 2.0 | 0.00 | 0.00 | 0.00 | 58 | 998.3 |
| 20260505110718 | 53 | 212 | 0.0 | 2.0 | 0.00 | 0.00 | 0.00 | 58 | 998.3 |
| 20260505110217 | 53 | 212 | 0.0 | 1.0 | 0.00 | 0.00 | 0.00 | 58 | 998.2 |
| 20260505102218 | 54 | 230 | 1.0 | 4.0 | 0.00 | 0.00 | 0.00 | 57 | 998.1 |
| 20260505101718 | 54 | 213 | 2.0 | 4.0 | 0.00 | 0.00 | 0.00 | 57 | 998.2 |
| 20260505101218 | 53 | 217 | 2.0 | 4.0 | 0.00 | 0.00 | 0.00 | 57 | 998.1 |
| 20260505100718 | 53 | 211 | 1.0 | 5.0 | 0.00 | 0.00 | 0.00 | 57 | 998.2 |
| 20260505100218 | 53 | 185 | 1.0 | 4.0 | 0.00 | 0.00 | 0.00 | 58 | 998.2 |
| 20260505095718 | 53 | 186 | 1.0 | 3.0 | 0.00 | 0.00 | 0.00 | 59 | 998.2 |
| 20260505095218 | 53 | 185 | 2.0 | 4.0 | 0.00 | 0.00 | 0.00 | 60 | 998.1 |
| 20260505094718 | 53 | 187 | 2.0 | 4.0 | 0.00 | 0.00 | 0.00 | 60 | 998.2 |
| 20260505094218 | 53 | 188 | 1.0 | 5.0 | 0.00 | 0.00 | 0.00 | 61 | 998.2 |
| 20260505093718 | 53 | 187 | 1.0 | 3.0 | 0.00 | 0.00 | 0.00 | 62 | 998.1 |
| 20260505093218 | 53 | 187 | 1.0 | 3.0 | 0.00 | 0.00 | 0.00 | 62 | 998.1 |
| 20260505092718 | 53 | 187 | 2.0 | 4.0 | 0.00 | 0.00 | 0.00 | 62 | 998.0 |
| 20260505092218 | 53 | 187 | 2.0 | 4.0 | 0.00 | 0.00 | 0.00 | 62 | 998.0 |
| 20260505091718 | 53 | 187 | 2.0 | 4.0 | 0.00 | 0.00 | 0.00 | 62 | 998.0 |
| 20260505091218 | 53 | 186 | 2.0 | 4.0 | 0.00 | 0.00 | 0.00 | 63 | 998.0 |
| 20260505090718 | 53 | 186 | 2.0 | 5.0 | 0.00 | 0.00 | 0.00 | 63 | 998.0 |
| 20260505090218 | 53 | 186 | 2.0 | 4.0 | 0.00 | 0.00 | 0.00 | 64 | 998.0 |
| 20260505085718 | 53 | 186 | 2.0 | 3.0 | 0.00 | 0.00 | 0.00 | 64 | 998.0 |
| 20260505085218 | 53 | 186 | 2.0 | 4.0 | 0.00 | 0.00 | 0.00 | 64 | 998.0 |
| 20260505084718 | 53 | 185 | 2.0 | 5.0 | 0.00 | 0.00 | 0.00 | 64 | 998.1 |
| 20260505084218 | 53 | 184 | 2.0 | 6.0 | 0.00 | 0.00 | 0.00 | 64 | 998.1 |
| 20260505083718 | 53 | 182 | 2.0 | 4.0 | 0.00 | 0.00 | 0.00 | 64 | 998.2 |
| 20260505083218 | 53 | 173 | 1.0 | 4.0 | 0.00 | 0.00 | 0.00 | 65 | 998.2 |
| 20260505082718 | 53 | 169 | 1.0 | 6.0 | 0.00 | 0.00 | 0.00 | 66 | 998.2 |
| 20260505082218 | 53 | 181 | 1.0 | 3.0 | 0.00 | 0.00 | 0.00 | 66 | 998.1 |
| 20260505081718 | 53 | 181 | 1.0 | 3.0 | 0.00 | 0.00 | 0.00 | 66 | 998.2 |
| 20260505081218 | 53 | 181 | 0.0 | 3.0 | 0.00 | 0.00 | 0.00 | 66 | 998.2 |
| 20260505080718 | 53 | 182 | 0.0 | 4.0 | 0.00 | 0.00 | 0.00 | 65 | 998.2 |
| 20260505080218 | 53 | 182 | 1.0 | 3.0 | 0.00 | 0.00 | 0.00 | 64 | 998.1 |
| 20260505075718 | 53 | 182 | 1.0 | 8.0 | 0.00 | 0.00 | 0.00 | 63 | 998.2 |
| 20260505075218 | 53 | 245 | 1.0 | 3.0 | 0.00 | 0.00 | 0.00 | 60 | 998.3 |
| 20260505074718 | 53 | 245 | 2.0 | 5.0 | 0.00 | 0.00 | 0.00 | 60 | 998.3 |
| 20260505074218 | 53 | 245 | 1.0 | 6.0 | 0.00 | 0.00 | 0.00 | 60 | 998.3 |
| 20260505073718 | 53 | 246 | 2.0 | 4.0 | 0.00 | 0.00 | 0.00 | 61 | 998.3 |
| 20260505073218 | 53 | 246 | 2.0 | 6.0 | 0.00 | 0.00 | 0.00 | 60 | 998.3 |
| 20260505072718 | 53 | 247 | 1.0 | 3.0 | 0.00 | 0.00 | 0.00 | 60 | 998.3 |
| 20260505072218 | 53 | 247 | 2.0 | 6.0 | 0.00 | 0.00 | 0.00 | 59 | 998.4 |
| 20260505071718 | 53 | 248 | 2.0 | 7.0 | 0.00 | 0.00 | 0.00 | 59 | 998.4 |
| 20260505071218 | 54 | 246 | 2.0 | 4.0 | 0.00 | 0.00 | 0.00 | 58 | 998.3 |
| 20260505070718 | 54 | 246 | 2.0 | 6.0 | 0.00 | 0.00 | 0.00 | 58 | 998.4 |
| 20260505070218 | 54 | 246 | 2.0 | 4.0 | 0.00 | 0.00 | 0.00 | 58 | 998.4 |
| 20260505065718 | 54 | 246 | 2.0 | 7.0 | 0.00 | 0.00 | 0.00 | 58 | 998.3 |
| 20260505065218 | 54 | 254 | 3.0 | 9.0 | 0.00 | 0.00 | 0.00 | 57 | 998.3 |
| 20260505064718 | 54 | 258 | 3.0 | 6.0 | 0.00 | 0.00 | 0.00 | 57 | 998.3 |
| 20260505064218 | 54 | 269 | 3.0 | 8.0 | 0.00 | 0.00 | 0.00 | 56 | 998.2 |
| 20260505063718 | 54 | 224 | 3.0 | 7.0 | 0.00 | 0.00 | 0.00 | 57 | 998.2 |
| 20260505063218 | 54 | 248 | 3.0 | 7.0 | 0.00 | 0.00 | 0.00 | 57 | 998.1 |
| 20260505062718 | 54 | 259 | 3.0 | 9.0 | 0.00 | 0.00 | 0.00 | 58 | 998.0 |
| 20260505062218 | 53 | 261 | 3.0 | 7.0 | 0.00 | 0.00 | 0.00 | 60 | 998.1 |
| 20260505061718 | 54 | 194 | 3.0 | 6.0 | 0.00 | 0.00 | 0.00 | 60 | 998.1 |
| 20260505061218 | 53 | 186 | 2.0 | 6.0 | 0.00 | 0.00 | 0.00 | 61 | 998.2 |
| 20260505060718 | 53 | 202 | 3.0 | 5.0 | 0.00 | 0.00 | 0.00 | 61 | 998.1 |
| 20260505060218 | 53 | 169 | 3.0 | 8.0 | 0.00 | 0.00 | 0.00 | 63 | 998.2 |
| 20260505055718 | 53 | 181 | 4.0 | 9.0 | 0.00 | 0.00 | 0.00 | 62 | 998.3 |
| 20260505055218 | 54 | 232 | 3.0 | 8.0 | 0.00 | 0.00 | 0.00 | 61 | 998.2 |
| 20260505054718 | 54 | 251 | 3.0 | 8.0 | 0.00 | 0.00 | 0.00 | 61 | 998.2 |
| 20260505054218 | 54 | 263 | 4.0 | 7.0 | 0.00 | 0.00 | 0.00 | 61 | 998.1 |
| 20260505053718 | 54 | 268 | 4.0 | 12.0 | 0.00 | 0.00 | 0.00 | 60 | 997.9 |
| 20260505053218 | 54 | 254 | 4.0 | 9.0 | 0.00 | 0.00 | 0.00 | 60 | 997.8 |
| 20260505052718 | 55 | 229 | 4.0 | 9.0 | 0.00 | 0.00 | 0.00 | 59 | 997.7 |
| 20260505052218 | 55 | 221 | 5.0 | 11.0 | 0.00 | 0.00 | 0.00 | 58 | 997.7 |
| 20260505051718 | 55 | 267 | 4.0 | 10.0 | 0.00 | 0.00 | 0.00 | 57 | 997.8 |
| 20260505051219 | 55 | 196 | 4.0 | 9.0 | 0.00 | 0.00 | 0.00 | 57 | 997.7 |
| 20260505050718 | 55 | 261 | 4.0 | 9.0 | 0.00 | 0.00 | 0.00 | 57 | 997.6 |
| 20260505050218 | 55 | 205 | 4.0 | 11.0 | 0.00 | 0.00 | 0.00 | 57 | 997.5 |
| 20260505041718 | 60 | 162 | 3.0 | 9.0 | 0.00 | 0.00 | 0.00 | 45 | 996.9 |